Powrót do katalogu

CZ-6A DEB

AktywnyPO
NORAD 60643·DEBRIS·🇨🇳 China

Wystrzelony Aug 6, 2024 z Taiyuan Satellite Launch Center

Loading…

Następne Przeloty (najbliższe 24 godziny)

TLE

ŚwieżeSource: Space-Track

Epoka: Sep 13, 2026, 17:33 UTC

1 60643U 24140AU  26256.73163151  .00002804  00000-0  78222-3 0  9996
2 60643  88.9659 258.6679 0050936  44.4773 316.0503 14.45295678110541

Śledź CZ-6A DEB w czasie rzeczywistym z AllMySat

Download on the App Store